Presure
117 118 119 129 106 141 122 131 134 133 133 125 126 119 127 132 131 106 116 111 122 107 85 103 123 155 108 129 145 165 162 115 102 112 185 169 160 133 178 183 188 196 181 169 172
132 129 129 133 127 134 113 123 133 136 118 114 109 127 144 110 111 121 120 104 128 118 100 123 141 127 128 118 134 105 121 154 122 114 141 120 176 198 181 176 192 177 177 181 188
134 141 139 116 103 139 131 147 115 136 127 154 144 127 126 144 109 84 152 123 120 128 127 139 139 103 147 144 117 140 134 122 99 194 169 170 186 183 188 185 188 181 184 174 166
144 139 111 113 118 141 121 126 150 105 140 121 134 147 136 126 146 137 144 132 135 125 134 140 138 155 130 131 119 128 118 182 108 194 186 179 172 189 186 178 184 178 170 177 178
130 114 119 102 151 151 110 114 120 96 110 110 142 131 113 137 143 132 132 133 139 153 108 142 157 146 153 150 122 150 162 153 102 193 169 175 180 190 177 175 187 182 174 165 169
143 98 125 123 131 127 107 113 119 105 138 95 117 140 126 140 150 137 118 125 126 131 158 130 145 166 113 172 102 154 134 203 172 152 177 185 188 179 175 179 181 177 184 181 165
150 151 158 138 113 124 114 101 148 159 124 143 137 158 127 135 103 107 86 147 98 138 145 144 134 132 163 90 125 132 185 143 116 211 175 191 196 178 183 185 179 178 172 171 181
132 122 160 126 123 135 109 112 134 134 142 125 155 140 141 127 120 121 104 183 184 148 127 111 150 175 187 183 151 190 162 159 195 186 194 196 191 175 172 170 180 184 179 171 184
141 115 120 139 117 136 140 138 131 117 100 151 106 126 132 113 164 216 167 115 92 140 111 126 176 163 145 159 192 181 175 200 189 185 199 189 186 182 171 182 191 180 182 179 180
98 153 132 133 134 113 159 107 159 156 141 176 176 147 197 172 169 159 104 166 143 182 163 102 173 196 170 196 196 182 191 188 169 202 193 168 188 192 180 180 183 177 184 174 178
180 127 125 159 112 146 103 157 165 152 114 192 204 135 112 145 160 184 108 173 189 193 183 185 192 112 208 190 187 168 189 182 187 208 191 184 178 179 182 192 173 177 176 171 185
190 191 144 180 103 149 186 139 161 161 130 188 210 144 147 171 179 175 189 206 165 200 197 196 190 187 167 182 179 196 177 189 179 193 192 188 183 189 185 179 172 172 171 165 177
138 131 166 185 111 120 187 174 173 156 177 184 155 186 139 209 111 192 207 198 177 203 196 164 200 183 186 195 195 182 169 199 191 191 191 193 185 185 185 180 180 174 170 175 173
180 139 172 141 191 163 176 179 190 147 161 130 190 190 179 199 192 183 202 195 200 199 203 202 186 196 190 189 186 191 186 204 187 170 187 179 192 185 187 175 185 172 168 170 181
194 180 189 156 159 172 183 174 178 161 188 179 127 158 194 139 180 199 202 191 194 193 187 185 192 190 189 178 169 184 171 174 177 186 193 193 191 188 174 172 181 168 172 179 177
215 178 152 176 188 167 158 178 186 170 200 184 178 182 201 184 150 192 196 192 189 193 191 187 189 185 186 184 169 184 189 188 190 194 195 189 183 172 188 187 185 174 174 168 160
217 191 182 127 158 179 171 199 169 161 141 188 199 183 188 190 193 197 201 196 200 203 198 193 181 182 176 185 176 174 184 195 191 177 198 182 194 176 184 174 185 178 176 155 172
207 187 176 184 178 182 183 183 179 189 190 183 106 172 197 186 182 186 191 188 183 191 190 187 186 178 174 179 185 185 183 190 193 198 176 189 179 190 177 185 183 181 180 161 178
205 184 189 181 181 184 176 193 190 188 177 192 184 190 166 176 179 198 193 186 184 180 185 184 182 185 185 177 175 162 187 185 190 187 185 188 176 181 172 188 184 186 161 177 181
199 197 190 183 180 189 188 192 184 194 181 185 191 190 189 188 193 195 187 183 169 179 176 185 175 185 186 176 183 187 179 180 175 188 185 183 164 171 187 169 183 176 166 159 160
204 194 190 188 193 187 186 191 206 189 184 175 174 186 187 194 193 186 184 183 178 169 180 171 183 166 185 186 183 176 179 178 173 182 183 177 187 171 171 176 168 176 179 180 180
199 199 197 199 185 187 185 202 195 194 187 179 177 187 189 186 184 192 182 186 178 180 189 168 186 176 176 167 145 174 189 171 166 179 185 182 177 176 174 173 151 188 181 184 187
207 203 209 198 197 197 188 191 189 183 182 188 186 182 190 188 177 185 187 185 175 187 191 193 187 194 202 188 202 177 193 189 179 171 183 177 179 169 178 177 182 193 192 175 175
215 198 204 210 199 191 189 199 187 185 179 182 182 184 180 184 190 184 189 180 187 177 167 178 182 186 186 183 189 188 183 191 190 192 180 184 178 182 177 189 194 169 173 188 185
207 212 203 213 207 193 191 195 192 196 187 180 177 183 183 178 182 181 176 179 180 193 178 182 177 180 173 178 180 194 189 181 197 192 181 181 176 183 182 172 172 176 179 184 179
220 213 205 206 223 189 187 196 185 188 196 189 178 175 183 183 180 177 171 172 182 176 179 183 184 174 176 182 177 183 196 186 202 168 185 195 193 180 160 167 180 179 181 180 195
188 210 206 206 209 198 195 200 189 191 185 185 186 183 176 185 176 174 177 176 172 177 177 181 180 187 187 179 187 197 182 192 194 173 187 186 166 163 176 171 175 175 182 186 192
Wind_Speed
56 55 57 57 53 58 50 54 54 54 52 47 47 44 43 44 40 50 45 50 50 50 26 48 55 55 53 54 55 54 53 56 46 52 35 53 54 55 41 41 37 36 38 41 40
65 63 61 62 55 60 50 49 57 57 51 47 48 49 56 46 47 42 45 53 49 51 49 54 53 57 58 56 54 56 41 56 63 64 48 69 48 34 39 37 32 40 38 38 34
74 76 74 49 53 64 61 64 56 59 52 62 57 47 46 57 50 25 53 51 52 47 53 55 54 54 57 58 57 55 58 60 42 35 50 48 39 39 36 30 31 39 33 39 41
82 79 54 52 49 69 51 53 68 51 60 50 54 60 55 49 62 51 55 49 51 51 53 58 54 61 62 60 61 61 56 48 62 36 39 40 46 37 35 32 30 36 40 36 36
72 66 59 60 78 77 54 53 59 53 53 52 59 53 53 56 63 49 52 52 56 65 48 57 68 67 60 64 53 62 59 61 56 38 47 47 38 35 32 38 28 32 38 46 41
84 56 66 60 66 67 53 53 54 59 64 47 53 61 55 63 68 58 46 51 54 60 70 61 62 73 62 63 46 63 55 42 56 62 47 42 34 33 35 38 29 32 29 29 45
87 87 86 82 55 59 60 63 72 80 56 69 67 76 53 60 55 57 36 67 43 63 62 63 53 67 69 35 64 69 57 65 60 36 51 39 32 33 34 34 28 35 36 36 30
80 64 91 66 70 77 63 62 73 66 73 59 76 66 71 53 57 57 61 75 71 65 60 65 61 70 65 62 65 55 64 66 48 47 42 38 36 34 41 38 32 30 34 38 31
93 71 76 83 70 75 82 76 71 65 49 76 63 66 68 60 68 61 61 59 38 68 51 65 69 65 57 62 56 58 59 46 48 42 44 40 39 30 41 38 30 34 33 36 34
68 101 79 83 81 63 88 68 88 87 78 79 72 69 78 85 76 74 61 75 71 65 74 60 69 58 47 56 51 56 48 51 58 40 44 48 44 36 34 38 33 36 27 41 37
107 83 72 100 75 89 57 89 86 89 72 87 84 74 59 77 84 75 66 80 73 70 74 73 63 46 55 53 54 62 54 53 53 48 33 46 43 47 36 30 37 40 34 42 41
103 106 76 104 67 91 97 86 95 89 74 90 83 78 73 86 81 80 76 65 68 63 64 63 60 66 70 59 59 49 49 50 51 45 36 38 42 43 38 36 42 40 36 47 44
94 86 102 101 74 77 94 97 96 90 96 94 80 84 75 74 66 79 63 71 68 63 61 77 56 65 60 53 49 52 55 50 45 46 39 36 39 42 37 40 42 42 40 42 46
105 95 102 93 101 94 95 104 98 86 95 69 83 76 72 81 80 84 68 69 66 62 57 51 62 53 55 51 57 51 53 50 46 46 43 41 38 39 37 42 46 45 47 49 43
112 116 115 101 101 100 103 106 99 92 93 90 53 81 80 69 84 73 68 63 65 66 69 63 57 56 56 63 59 53 52 50 49 48 41 42 38 45 31 41 44 46 52 52 50
104 117 94 109 104 100 102 107 103 90 88 94 90 81 81 81 69 73 69 68 71 66 64 62 60 62 66 62 58 58 55 54 49 46 39 48 41 44 45 37 42 50 54 53 60
109 118 117 91 109 112 109 99 110 92 77 93 84 72 80 75 73 69 65 64 62 59 54 58 68 64 67 66 61 60 59 53 50 48 44 46 46 47 45 46 46 50 58 60 60
113 118 121 117 117 116 110 109 111 94 93 93 64 83 78 83 80 74 72 71 72 65 65 64 63 70 71 69 66 63 60 56 54 52 46 50 48 49 49 55 53 54 59 58 63
116 120 120 123 119 119 114 111 97 94 96 92 96 88 84 82 81 71 69 73 74 72 71 69 65 67 67 72 68 62 63 63 58 57 56 58 50 52 48 56 61 62 58 61 61
118 122 126 126 120 119 115 106 98 87 97 98 96 89 88 85 81 73 75 75 80 78 78 70 73 70 70 73 71 68 67 63 61 63 63 64 56 51 62 54 62 62 60 52 57
124 130 128 126 128 124 117 102 91 94 100 101 97 96 88 82 78 78 79 79 81 80 83 74 76 68 71 73 70 71 70 68 69 68 69 70 75 64 62 61 58 66 65 65 74
129 131 127 128 130 120 109 97 93 94 101 102 101 99 87 86 85 76 84 82 87 87 82 77 80 76 76 71 69 69 68 66 62 71 71 75 76 78 69 67 55 74 63 75 78
132 127 130 129 136 118 107 106 103 103 102 98 97 99 89 84 88 84 84 84 80 81 82 84 82 80 69 73 67 72 69 70 73 63 73 77 81 72 81 81 75 86 83 62 73
134 130 132 134 128 119 113 108 108 104 104 100 98 98 93 83 81 92 86 90 84 85 82 82 81 81 77 75 76 67 72 72 74 73 75 78 89 86 76 89 89 59 65 91 87
135 134 132 132 122 116 113 112 111 103 105 102 99 92 88 91 87 93 90 90 86 79 90 89 84 84 74 81 74 82 71 75 79 75 74 81 85 97 93 67 65 69 79 85 83
138 134 131 130 120 121 117 116 105 108 101 100 99 96 93 90 91 93 90 88 93 92 94 94 94 88 88 92 84 69 85 78 77 77 80 84 86 87 70 76 91 86 88 92 102
106 135 132 129 122 124 115 110 108 112 105 101 101 104 97 93 94 95 96 95 95 98 98 100 98 101 96 92 93 90 90 92 89 68 90 85 67 63 85 85 91 92 102 99 105
Wind_Direction
249 250 254 259 260 257 256 264 263 264 265 264 268 263 268 274 270 274 273 275 280 283 284 291 287 294 294 294 297 305 308 302 314 314 305 302 304 301 299 303 291 289 290 293 291
251 256 259 258 255 258 248 260 262 264 267 257 260 267 275 267 266 265 269 280 284 275 291 284 289 287 289 292 295 302 301 305 301 305 306 309 301 297 298 303 292 285 292 291 288
258 256 257 239 255 257 258 262 261 262 266 270 269 271 267 274 271 264 281 273 274 280 278 285 285 295 292 291 293 295 296 298 312 294 303 300 301 303 299 302 293 287 291 286 290
252 257 235 242 245 258 255 258 264 257 263 259 271 271 271 269 278 275 282 278 279 276 284 287 286 293 285 289 289 291 296 307 304 299 295 296 300 299 304 294 286 286 288 285 283
250 243 242 245 258 257 242 251 264 266 259 270 268 269 261 273 274 270 274 281 281 286 285 287 289 288 288 292 295 295 300 297 307 295 299 297 296 298 297 291 294 285 282 291 290
252 243 246 245 260 254 262 240 255 258 267 273 256 270 266 273 278 273 274 272 274 278 287 281 288 292 289 295 293 297 298 296 302 297 292 297 292 292 289 289 292 283 288 291 284
251 251 254 256 232 256 236 254 262 264 263 266 270 271 264 269 270 268 268 281 284 281 284 282 287 284 292 293 293 290 299 292 301 296 295 294 295 288 293 290 287 286 279 281 289
259 245 253 261 258 262 236 238 267 261 264 264 268 268 268 267 262 267 270 275 277 279 274 280 288 287 290 290 290 293 297 295 293 295 298 297 292 293 284 285 286 282 283 278 301
252 241 252 256 249 253 258 261 261 262 270 266 260 265 269 259 268 272 272 268 276 275 281 278 281 281 289 290 289 291 297 291 293 297 300 293 289 282 283 288 292 284 294 287 293
250 251 256 259 259 259 257 248 259 262 261 265 266 263 267 271 270 272 271 274 276 273 279 286 284 287 283 284 285 294 289 292 292 299 295 290 291 288 282 289 286 285 288 287 297
243 255 253 252 237 257 258 258 255 262 259 262 266 266 260 273 272 272 270 274 272 273 273 278 282 287 274 286 287 292 284 289 293 294 289 289 285 287 283 280 284 289 294 283 297
240 241 246 242 248 255 250 261 258 258 259 259 264 267 266 265 268 272 273 271 272 273 273 275 278 279 287 286 285 281 288 292 294 291 291 280 283 286 284 283 274 279 285 287 294
251 252 244 242 254 252 248 254 252 258 256 258 262 260 266 264 264 271 268 271 272 268 274 277 267 279 280 276 276 285 285 294 292 289 289 280 282 281 290 284 285 281 279 288 289
235 244 244 251 243 249 248 250 250 256 260 259 260 261 263 266 269 269 267 270 271 274 270 267 275 274 278 280 283 289 292 289 289 293 291 283 283 286 285 289 289 284 283 282 295
228 238 242 247 249 245 244 251 251 253 253 253 262 258 263 263 264 266 265 268 269 269 274 275 274 275 275 282 287 287 287 291 291 291 292 288 281 281 281 288 294 284 290 296 298
226 235 239 245 241 245 251 247 250 253 254 256 257 261 260 263 262 263 262 262 265 267 268 272 272 276 278 284 286 289 290 293 291 293 294 279 291 286 291 294 294 291 293 293 286
224 227 234 241 250 243 245 246 252 252 258 255 257 257 257 259 264 263 260 260 260 261 264 264 279 280 284 284 289 291 294 293 295 290 287 296 293 292 301 285 292 294 292 284 297
223 226 236 233 239 241 241 244 246 250 254 257 265 257 257 261 262 263 264 266 270 263 266 270 270 278 284 286 286 290 293 295 290 293 292 296 299 296 296 294 294 290 284 277 296
221 228 228 234 237 238 243 242 244 250 252 254 257 257 257 260 264 260 258 263 269 271 271 273 275 274 277 284 288 287 292 292 299 300 297 295 292 295 291 297 293 295 278 299 304
221 223 228 232 237 236 238 239 241 239 246 251 255 256 259 261 260 258 261 263 272 272 275 274 280 277 276 284 286 287 290 298 295 296 298 297 284 290 299 290 295 289 289 300 295
219 224 227 230 232 235 237 239 232 237 243 252 257 256 258 259 258 261 262 263 267 272 271 278 277 280 280 282 282 290 294 293 294 295 291 293 289 293 290 289 286 292 301 307 304
222 223 226 227 235 233 236 235 235 233 239 245 252 253 252 257 260 257 264 262 268 270 271 275 273 277 278 280 277 284 281 282 285 289 288 286 292 294 295 296 294 301 304 303 303
221 224 224 227 232 232 234 235 236 238 242 241 246 253 253 254 260 260 256 262 266 268 270 272 273 275 279 281 284 281 282 283 287 290 285 289 290 290 295 297 303 303 303 303 303
218 223 225 226 229 230 231 229 235 238 243 244 246 250 257 258 257 260 261 265 268 268 270 272 277 282 281 282 288 281 287 283 284 282 287 285 287 290 294 294 298 299 304 305 306
219 219 224 227 228 232 233 231 234 233 237 243 247 249 251 254 254 260 265 266 271 272 274 277 279 283 281 285 283 288 285 289 284 283 290 284 292 291 295 296 298 303 306 308 303
217 220 222 226 226 231 233 231 236 237 236 238 245 249 246 249 252 257 266 268 267 271 273 276 276 277 279 283 283 287 289 290 287 290 291 287 287 291 287 298 304 309 309 306 310
224 219 221 225 225 227 230 228 232 236 239 239 240 244 249 246 254 258 261 263 267 269 270 272 274 276 279 282 285 289 292 291 290 289 291 291 282 291 298 301 304 305 303 308 308